FLOCK 2K-31

Last updated on Wed Feb 14 2018 16:20:52 GMT+0000 (Coordinated Universal Time)

1 42869U 17042AW 18045.50615799 .00007699 00000-0 22377-3 0 9998 2 42869 96.9927 308.3136 0010625 184.2308 175.8848 15.35664992 32801
UTC large
Height (km)
Speed (km/s)
/
Latitude / Longitude
Inclination (degrees)
Orbital Period (minutes)
Azimuth
Elevation
Range (km)
Doppler Factor

Next 0 passes for location: London (51.5072 / 0.1276)

Sorry there are no passes over London.